Location: Audinghen
(50.8518°N, 1.6129°E)
Time: 09:34:19
(UTC+00:00)

KORONAS-FOTON - Pass Details

Date: 07 August 2020
Orbit: 506 x 531 km, 82.4° (Epoch: 20 September)

Event Time Altitude Azimuth Distance (km) Brightness Sun altitude
Rises 02:11:53 0° 342° (NNW) 2,625 8.0 -16.8°
Reaches altitude 10° 02:14:08 10° 334° (NNW) 1,735 6.9 -16.6°
Maximum altitude 02:17:37 36° 267° (W) 829 4.5 -16.3°
Enters shadow 02:18:22 32° 241° (WSW) 892 4.5 -16.3°
